STARLINK-1995 (47590 NORAD) Tracking and Keplerian Element Data

This shows tracking and keplerian element data for the satellite.

Feedback or suggestion? Click here.




ElementValue
Catalog47590
NameSTARLINK-1995
Epoch Orbit175
Epoch Day105.91667824
Epoch Year2021
RAAN151.7205
Inclination53.0525
Eccentricity0.0001384
Argument of Perigee69.9762
Mean Anonmoly57.121
Mean Motion15.06380528
Decay Rate0.00016319
L11 47590U 21009AU 21105.91667824 .00016319 00000-0 11125-2 0 9991
L22 47590 53.0525 151.7205 0001384 69.9762 57.1210 15.06380528 1750

Live tracking and technical data element details for STARLINK-1995 (NORAD 47590). STARLINK-1995 can be tracked NOW for your location showing map with azimuth and elevation plus other details from your city location.

Track the satellite on the map from your city or location and see movement details for azimuth, elevation, latitude, longitude, range, height, and movement on the map or in text.







IsCatalogInMostPopularTable: catalog: 47590, numindb: 17
Update: records affected: 1



GetName: 47590 STARLINK-1995

Hit Count: updated at: Fri, 16 Apr 2021 10:38:37 GMT